Year,Month,Day,Hour,Minute,Value (Times are PST for barometer in hPa)
2017,10,20,00,00,994.52
2017,10,20,00,01,994.52
2017,10,20,00,02,994.52
2017,10,20,00,03,994.52
2017,10,20,00,04,994.52
2017,10,20,00,05,994.52
2017,10,20,00,06,994.52
2017,10,20,00,07,994.52
2017,10,20,00,08,994.52
2017,10,20,00,09,994.52
2017,10,20,00,10,994.52
2017,10,20,00,11,994.52
2017,10,20,00,12,994.52
2017,10,20,00,13,994.52
2017,10,20,00,14,994.52
2017,10,20,00,15,994.45
2017,10,20,00,16,994.45
2017,10,20,00,17,994.45
2017,10,20,00,18,994.45
2017,10,20,00,19,994.45
2017,10,20,00,20,994.45
2017,10,20,00,21,994.45
2017,10,20,00,22,994.45
2017,10,20,00,23,994.45
2017,10,20,00,24,994.45
2017,10,20,00,25,994.45
2017,10,20,00,26,994.45
2017,10,20,00,27,994.45
2017,10,20,00,28,994.45
2017,10,20,00,29,994.45
2017,10,20,00,30,994.48
2017,10,20,00,31,994.48
2017,10,20,00,32,994.48
2017,10,20,00,33,994.48
2017,10,20,00,34,994.48
2017,10,20,00,35,994.48
2017,10,20,00,36,994.48
2017,10,20,00,37,994.48
2017,10,20,00,38,994.48
2017,10,20,00,39,994.48
2017,10,20,00,40,994.48
2017,10,20,00,41,994.48
2017,10,20,00,42,994.48
2017,10,20,00,43,994.48
2017,10,20,00,44,994.48
2017,10,20,00,45,994.52
2017,10,20,00,46,994.52
2017,10,20,00,47,994.52
2017,10,20,00,48,994.52
2017,10,20,00,49,994.52
2017,10,20,00,50,994.52
2017,10,20,00,51,994.52
2017,10,20,00,52,994.52
2017,10,20,00,53,994.52
2017,10,20,00,54,994.52
2017,10,20,00,55,994.52
2017,10,20,00,56,994.52
2017,10,20,00,57,994.52
2017,10,20,00,58,994.52
2017,10,20,00,59,994.52
2017,10,20,01,00,994.68
2017,10,20,01,01,994.68
2017,10,20,01,02,994.68
2017,10,20,01,03,994.68
2017,10,20,01,04,994.68
2017,10,20,01,05,994.68
2017,10,20,01,06,994.68
2017,10,20,01,07,994.68
2017,10,20,01,08,994.68
2017,10,20,01,09,994.68
2017,10,20,01,10,994.68
2017,10,20,01,11,994.68
2017,10,20,01,12,994.68
2017,10,20,01,13,994.68
2017,10,20,01,14,994.68
2017,10,20,01,15,994.68
2017,10,20,01,16,994.68
2017,10,20,01,17,994.68
2017,10,20,01,18,994.68
2017,10,20,01,19,994.68
2017,10,20,01,20,994.68
2017,10,20,01,21,994.68
2017,10,20,01,22,994.68
2017,10,20,01,23,994.68
2017,10,20,01,24,994.68
2017,10,20,01,25,994.68
2017,10,20,01,26,994.68
2017,10,20,01,27,994.68
2017,10,20,01,28,994.68
2017,10,20,01,29,994.68
2017,10,20,01,30,994.79
2017,10,20,01,31,994.79
2017,10,20,01,32,994.79
2017,10,20,01,33,994.79
2017,10,20,01,34,994.79
2017,10,20,01,35,994.79
2017,10,20,01,36,994.79
2017,10,20,01,37,994.79
2017,10,20,01,38,994.79
2017,10,20,01,39,994.79
2017,10,20,01,40,994.79
2017,10,20,01,41,994.79
2017,10,20,01,42,994.79
2017,10,20,01,43,994.79
2017,10,20,01,44,994.79
2017,10,20,01,45,994.82
2017,10,20,01,46,994.82
2017,10,20,01,47,994.82
2017,10,20,01,48,994.82
2017,10,20,01,49,994.82
2017,10,20,01,50,994.82
2017,10,20,01,51,994.82
2017,10,20,01,52,994.82
2017,10,20,01,53,994.82
2017,10,20,01,54,994.82
2017,10,20,01,55,994.82
2017,10,20,01,56,994.82
2017,10,20,01,57,994.82
2017,10,20,01,58,994.82
2017,10,20,01,59,994.82
2017,10,20,02,00,994.92
2017,10,20,02,01,994.92
2017,10,20,02,02,994.92
2017,10,20,02,03,994.92
2017,10,20,02,04,994.92
2017,10,20,02,05,994.92
2017,10,20,02,06,994.92
2017,10,20,02,07,994.92
2017,10,20,02,08,994.92
2017,10,20,02,09,994.92
2017,10,20,02,10,994.92
2017,10,20,02,11,994.92
2017,10,20,02,12,994.92
2017,10,20,02,13,994.92
2017,10,20,02,14,994.93
2017,10,20,02,15,995.16
2017,10,20,02,16,995.16
2017,10,20,02,17,995.16
2017,10,20,02,18,995.16
2017,10,20,02,19,995.16
2017,10,20,02,20,995.16
2017,10,20,02,21,995.16
2017,10,20,02,22,995.16
2017,10,20,02,23,995.16
2017,10,20,02,24,995.16
2017,10,20,02,25,995.16
2017,10,20,02,26,995.16
2017,10,20,02,27,995.16
2017,10,20,02,28,995.16
2017,10,20,02,29,995.17
2017,10,20,02,30,995.43
2017,10,20,02,31,995.43
2017,10,20,02,32,995.43
2017,10,20,02,33,995.43
2017,10,20,02,34,995.43
2017,10,20,02,35,995.43
2017,10,20,02,36,995.43
2017,10,20,02,37,995.43
2017,10,20,02,38,995.43
2017,10,20,02,39,995.43
2017,10,20,02,40,995.43
2017,10,20,02,41,995.43
2017,10,20,02,42,995.43
2017,10,20,02,43,995.43
2017,10,20,02,44,995.43
2017,10,20,02,45,995.36
2017,10,20,02,46,995.36
2017,10,20,02,47,995.36
2017,10,20,02,48,995.36
2017,10,20,02,49,995.36
2017,10,20,02,50,995.36
2017,10,20,02,51,995.36
2017,10,20,02,52,995.36
2017,10,20,02,53,995.36
2017,10,20,02,54,995.36
2017,10,20,02,55,995.36
2017,10,20,02,56,995.36
2017,10,20,02,57,995.36
2017,10,20,02,58,995.36
2017,10,20,02,59,995.36
2017,10,20,03,00,995.50
2017,10,20,03,01,995.50
2017,10,20,03,02,995.50
2017,10,20,03,03,995.50
2017,10,20,03,04,995.50
2017,10,20,03,05,995.50
2017,10,20,03,06,995.50
2017,10,20,03,07,995.50
2017,10,20,03,08,995.50
2017,10,20,03,09,995.50
2017,10,20,03,10,995.50
2017,10,20,03,11,995.50
2017,10,20,03,12,995.50
2017,10,20,03,13,995.50
2017,10,20,03,14,995.50
2017,10,20,03,15,995.70
2017,10,20,03,16,995.70
2017,10,20,03,17,995.70
2017,10,20,03,18,995.70
2017,10,20,03,19,995.70
2017,10,20,03,20,995.70
2017,10,20,03,21,995.70
2017,10,20,03,22,995.70
2017,10,20,03,23,995.70
2017,10,20,03,24,995.70
2017,10,20,03,25,995.70
2017,10,20,03,26,995.70
2017,10,20,03,27,995.70
2017,10,20,03,28,995.70
2017,10,20,03,29,995.70
2017,10,20,03,30,995.73
2017,10,20,03,31,995.73
2017,10,20,03,32,995.73
2017,10,20,03,33,995.73
2017,10,20,03,34,995.73
2017,10,20,03,35,995.73
2017,10,20,03,36,995.73
2017,10,20,03,37,995.73
2017,10,20,03,38,995.73
2017,10,20,03,39,995.73
2017,10,20,03,40,995.73
2017,10,20,03,41,995.73
2017,10,20,03,42,995.73
2017,10,20,03,43,995.73
2017,10,20,03,44,995.73
2017,10,20,03,45,995.73
2017,10,20,03,46,995.73
2017,10,20,03,47,995.73
2017,10,20,03,48,995.73
2017,10,20,03,49,995.73
2017,10,20,03,50,995.73
2017,10,20,03,51,995.73
2017,10,20,03,52,995.73
2017,10,20,03,53,995.73
2017,10,20,03,54,995.73
2017,10,20,03,55,995.73
2017,10,20,03,56,995.73
2017,10,20,03,57,995.73
2017,10,20,03,58,995.73
2017,10,20,03,59,995.73
2017,10,20,04,00,995.77
2017,10,20,04,01,995.77
2017,10,20,04,02,995.77
2017,10,20,04,03,995.77
2017,10,20,04,04,995.77
2017,10,20,04,05,995.77
2017,10,20,04,06,995.77
2017,10,20,04,07,995.77
2017,10,20,04,08,995.77
2017,10,20,04,09,995.77
2017,10,20,04,10,995.77
2017,10,20,04,11,995.77
2017,10,20,04,12,995.77
2017,10,20,04,13,995.77
2017,10,20,04,14,995.77
2017,10,20,04,15,996.17
2017,10,20,04,16,996.17
2017,10,20,04,17,996.17
2017,10,20,04,18,996.17
2017,10,20,04,19,996.17
2017,10,20,04,20,996.17
2017,10,20,04,21,996.17
2017,10,20,04,22,996.17
2017,10,20,04,23,996.17
2017,10,20,04,24,996.17
2017,10,20,04,25,996.17
2017,10,20,04,26,996.17
2017,10,20,04,27,996.17
2017,10,20,04,28,996.17
2017,10,20,04,29,996.17
2017,10,20,04,30,996.14
2017,10,20,04,31,996.14
2017,10,20,04,32,996.14
2017,10,20,04,33,996.14
2017,10,20,04,34,996.14
2017,10,20,04,35,996.14
2017,10,20,04,36,996.14
2017,10,20,04,37,996.14
2017,10,20,04,38,996.14
2017,10,20,04,39,996.14
2017,10,20,04,40,996.14
2017,10,20,04,41,996.14
2017,10,20,04,42,996.14
2017,10,20,04,43,996.14
2017,10,20,04,44,996.14
2017,10,20,04,45,996.01
2017,10,20,04,46,996.01
2017,10,20,04,47,996.01
2017,10,20,04,48,996.01
2017,10,20,04,49,996.01
2017,10,20,04,50,996.01
2017,10,20,04,51,996.01
2017,10,20,04,52,996.01
2017,10,20,04,53,996.01
2017,10,20,04,54,996.01
2017,10,20,04,55,996.01
2017,10,20,04,56,996.01
2017,10,20,04,57,996.01
2017,10,20,04,58,996.01
2017,10,20,04,59,996.01
2017,10,20,05,00,996.24
2017,10,20,05,01,996.24
2017,10,20,05,02,996.24
2017,10,20,05,03,996.24
2017,10,20,05,04,996.24
2017,10,20,05,05,996.24
2017,10,20,05,06,996.24
2017,10,20,05,07,996.24
2017,10,20,05,08,996.24
2017,10,20,05,09,996.24
2017,10,20,05,10,996.24
2017,10,20,05,11,996.24
2017,10,20,05,12,996.24
2017,10,20,05,13,996.24
2017,10,20,05,14,996.25
2017,10,20,05,15,996.38
2017,10,20,05,16,996.38
2017,10,20,05,17,996.38
2017,10,20,05,18,996.38
2017,10,20,05,19,996.38
2017,10,20,05,20,996.38
2017,10,20,05,21,996.38
2017,10,20,05,22,996.38
2017,10,20,05,23,996.38
2017,10,20,05,24,996.38
2017,10,20,05,25,996.38
2017,10,20,05,26,996.38
2017,10,20,05,27,996.38
2017,10,20,05,28,996.38
2017,10,20,05,29,996.38
2017,10,20,05,30,996.55
2017,10,20,05,31,996.55
2017,10,20,05,32,996.55
2017,10,20,05,33,996.55
2017,10,20,05,34,996.55
2017,10,20,05,35,996.55
2017,10,20,05,36,996.55
2017,10,20,05,37,996.55
2017,10,20,05,38,996.55
2017,10,20,05,39,996.55
2017,10,20,05,40,996.55
2017,10,20,05,41,996.55
2017,10,20,05,42,996.55
2017,10,20,05,43,996.55
2017,10,20,05,44,996.55
2017,10,20,05,45,996.75
2017,10,20,05,46,996.75
2017,10,20,05,47,996.75
2017,10,20,05,48,996.75
2017,10,20,05,49,996.75
2017,10,20,05,50,996.75
2017,10,20,05,51,996.75
2017,10,20,05,52,996.75
2017,10,20,05,53,996.75
2017,10,20,05,54,996.75
2017,10,20,05,55,996.75
2017,10,20,05,56,996.75
2017,10,20,05,57,996.75
2017,10,20,05,58,996.75
2017,10,20,05,59,996.75
2017,10,20,06,00,997.09
2017,10,20,06,01,997.09
2017,10,20,06,02,997.09
2017,10,20,06,03,997.09
2017,10,20,06,04,997.09
2017,10,20,06,05,997.09
2017,10,20,06,06,997.09
2017,10,20,06,07,997.09
2017,10,20,06,08,997.09
2017,10,20,06,09,997.09
2017,10,20,06,10,997.09
2017,10,20,06,11,997.09
2017,10,20,06,12,997.09
2017,10,20,06,13,997.09
2017,10,20,06,14,997.09
2017,10,20,06,15,997.22
2017,10,20,06,16,997.22
2017,10,20,06,17,997.22
2017,10,20,06,18,997.22
2017,10,20,06,19,997.22
2017,10,20,06,20,997.22
2017,10,20,06,21,997.22
2017,10,20,06,22,997.22
2017,10,20,06,23,997.22
2017,10,20,06,24,997.22
2017,10,20,06,25,997.22
2017,10,20,06,26,997.22
2017,10,20,06,27,997.22
2017,10,20,06,28,997.22
2017,10,20,06,29,997.22
2017,10,20,06,30,997.36
2017,10,20,06,31,997.36
2017,10,20,06,32,997.36
2017,10,20,06,33,997.36
2017,10,20,06,34,997.36
2017,10,20,06,35,997.36
2017,10,20,06,36,997.36
2017,10,20,06,37,997.36
2017,10,20,06,38,997.36
2017,10,20,06,39,997.36
2017,10,20,06,40,997.36
2017,10,20,06,41,997.36
2017,10,20,06,42,997.36
2017,10,20,06,43,997.36
2017,10,20,06,44,997.36
2017,10,20,06,45,997.33
2017,10,20,06,46,997.33
2017,10,20,06,47,997.33
2017,10,20,06,48,997.33
2017,10,20,06,49,997.33
2017,10,20,06,50,997.33
2017,10,20,06,51,997.33
2017,10,20,06,52,997.33
2017,10,20,06,53,997.33
2017,10,20,06,54,997.33
2017,10,20,06,55,997.33
2017,10,20,06,56,997.33
2017,10,20,06,57,997.33
2017,10,20,06,58,997.33
2017,10,20,06,59,997.33
2017,10,20,07,00,997.29
2017,10,20,07,01,997.29
2017,10,20,07,02,997.29
2017,10,20,07,03,997.29
2017,10,20,07,04,997.29
2017,10,20,07,05,997.29
2017,10,20,07,06,997.29
2017,10,20,07,07,997.29
2017,10,20,07,08,997.29
2017,10,20,07,09,997.29
2017,10,20,07,10,997.29
2017,10,20,07,11,997.29
2017,10,20,07,12,997.29
2017,10,20,07,13,997.29
2017,10,20,07,14,997.29
2017,10,20,07,15,997.60
2017,10,20,07,16,997.60
2017,10,20,07,17,997.60
2017,10,20,07,18,997.60
2017,10,20,07,19,997.60
2017,10,20,07,20,997.60
2017,10,20,07,21,997.60
2017,10,20,07,22,997.60
2017,10,20,07,23,997.60
2017,10,20,07,24,997.60
2017,10,20,07,25,997.60
2017,10,20,07,26,997.60
2017,10,20,07,27,997.60
2017,10,20,07,28,997.60
2017,10,20,07,29,997.60
2017,10,20,07,30,997.70
2017,10,20,07,31,997.70
2017,10,20,07,32,997.70
2017,10,20,07,33,997.70
2017,10,20,07,34,997.70
2017,10,20,07,35,997.70
2017,10,20,07,36,997.70
2017,10,20,07,37,997.70
2017,10,20,07,38,997.70
2017,10,20,07,39,997.70
2017,10,20,07,40,997.70
2017,10,20,07,41,997.70
2017,10,20,07,42,997.70
2017,10,20,07,43,997.70
2017,10,20,07,44,997.70
2017,10,20,07,45,997.77
2017,10,20,07,46,997.77
2017,10,20,07,47,997.77
2017,10,20,07,48,997.77
2017,10,20,07,49,997.77
2017,10,20,07,50,997.77
2017,10,20,07,51,997.77
2017,10,20,07,52,997.77
2017,10,20,07,53,997.77
2017,10,20,07,54,997.77
2017,10,20,07,55,997.77
2017,10,20,07,56,997.77
2017,10,20,07,57,997.77
2017,10,20,07,58,997.77
2017,10,20,07,59,997.77
2017,10,20,08,00,998.04
2017,10,20,08,01,998.04
2017,10,20,08,02,998.04
2017,10,20,08,03,998.04
2017,10,20,08,04,998.04
2017,10,20,08,05,998.04
2017,10,20,08,06,998.04
2017,10,20,08,07,998.04
2017,10,20,08,08,998.04
2017,10,20,08,09,998.04
2017,10,20,08,10,998.04
2017,10,20,08,11,998.04
2017,10,20,08,12,998.04
2017,10,20,08,13,998.04
2017,10,20,08,14,998.04
2017,10,20,08,15,998.04
2017,10,20,08,16,998.04
2017,10,20,08,17,998.04
2017,10,20,08,18,998.04
2017,10,20,08,19,998.04
2017,10,20,08,20,998.04
2017,10,20,08,21,998.04
2017,10,20,08,22,998.04
2017,10,20,08,23,998.04
2017,10,20,08,24,998.04
2017,10,20,08,25,998.04
2017,10,20,08,26,998.04
2017,10,20,08,27,998.04
2017,10,20,08,28,998.04
2017,10,20,08,29,998.04
2017,10,20,08,30,998.31
2017,10,20,08,31,998.31
2017,10,20,08,32,998.31
2017,10,20,08,33,998.31
2017,10,20,08,34,998.31
2017,10,20,08,35,998.31
2017,10,20,08,36,998.31
2017,10,20,08,37,998.31
2017,10,20,08,38,998.31
2017,10,20,08,39,998.31
2017,10,20,08,40,998.31
2017,10,20,08,41,998.31
2017,10,20,08,42,998.31
2017,10,20,08,43,998.31
2017,10,20,08,44,998.31
2017,10,20,08,45,998.38
2017,10,20,08,46,998.38
2017,10,20,08,47,998.38
2017,10,20,08,48,998.38
2017,10,20,08,49,998.38
2017,10,20,08,50,998.38
2017,10,20,08,51,998.38
2017,10,20,08,52,998.38
2017,10,20,08,53,998.38
2017,10,20,08,54,998.38
2017,10,20,08,55,998.38
2017,10,20,08,56,998.38
2017,10,20,08,57,998.38
2017,10,20,08,58,998.38
2017,10,20,08,59,998.38
2017,10,20,09,00,998.61
2017,10,20,09,01,998.61
2017,10,20,09,02,998.61
2017,10,20,09,03,998.61
2017,10,20,09,04,998.61
2017,10,20,09,05,998.61
2017,10,20,09,06,998.61
2017,10,20,09,07,998.61
2017,10,20,09,08,998.61
2017,10,20,09,09,998.61
2017,10,20,09,10,998.61
2017,10,20,09,11,998.61
2017,10,20,09,12,998.61
2017,10,20,09,13,998.61
2017,10,20,09,14,998.61
2017,10,20,09,15,998.78
2017,10,20,09,16,998.78
2017,10,20,09,17,998.78
2017,10,20,09,18,998.78
2017,10,20,09,19,998.78
2017,10,20,09,20,998.78
2017,10,20,09,21,998.78
2017,10,20,09,22,998.78
2017,10,20,09,23,998.78
2017,10,20,09,24,998.78
2017,10,20,09,25,998.78
2017,10,20,09,26,998.78
2017,10,20,09,27,998.78
2017,10,20,09,28,998.78
2017,10,20,09,29,998.78
2017,10,20,09,30,998.85
2017,10,20,09,31,998.85
2017,10,20,09,32,998.85
2017,10,20,09,33,998.85
2017,10,20,09,34,998.85
2017,10,20,09,35,998.85
2017,10,20,09,36,998.85
2017,10,20,09,37,998.85
2017,10,20,09,38,998.85
2017,10,20,09,39,998.85
2017,10,20,09,40,998.85
2017,10,20,09,41,998.85
2017,10,20,09,42,998.85
2017,10,20,09,43,998.85
2017,10,20,09,44,998.85
2017,10,20,09,45,998.88
2017,10,20,09,46,998.88
2017,10,20,09,47,998.88
2017,10,20,09,48,998.88
2017,10,20,09,49,998.88
2017,10,20,09,50,998.88
2017,10,20,09,51,998.88
2017,10,20,09,52,998.88
2017,10,20,09,53,998.88
2017,10,20,09,54,998.88
2017,10,20,09,55,998.88
2017,10,20,09,56,998.88
2017,10,20,09,57,998.88
2017,10,20,09,58,998.88
2017,10,20,09,59,998.88
2017,10,20,10,00,999.22
2017,10,20,10,01,999.22
2017,10,20,10,02,999.22
2017,10,20,10,03,999.22
2017,10,20,10,04,999.22
2017,10,20,10,05,999.22
2017,10,20,10,06,999.22
2017,10,20,10,07,999.22
2017,10,20,10,08,999.22
2017,10,20,10,09,999.22
2017,10,20,10,10,999.22
2017,10,20,10,11,999.22
2017,10,20,10,12,999.22
2017,10,20,10,13,999.22
2017,10,20,10,14,999.22
2017,10,20,10,15,999.36
2017,10,20,10,16,999.36
2017,10,20,10,17,999.36
2017,10,20,10,18,999.36
2017,10,20,10,19,999.36
2017,10,20,10,20,999.36
2017,10,20,10,21,999.36
2017,10,20,10,22,999.36
2017,10,20,10,23,999.36
2017,10,20,10,24,999.36
2017,10,20,10,25,999.36
2017,10,20,10,26,999.36
2017,10,20,10,27,999.36
2017,10,20,10,28,999.36
2017,10,20,10,29,999.36
2017,10,20,10,30,999.49
2017,10,20,10,31,999.49
2017,10,20,10,32,999.49
2017,10,20,10,33,999.49
2017,10,20,10,34,999.49
2017,10,20,10,35,999.49
2017,10,20,10,36,999.49
2017,10,20,10,37,999.49
2017,10,20,10,38,999.49
2017,10,20,10,39,999.49
2017,10,20,10,40,999.49
2017,10,20,10,41,999.49
2017,10,20,10,42,999.49
2017,10,20,10,43,999.49
2017,10,20,10,44,999.49
2017,10,20,10,45,999.73
2017,10,20,10,46,999.73
2017,10,20,10,47,999.73
2017,10,20,10,48,999.73
2017,10,20,10,49,999.73
2017,10,20,10,50,999.73
2017,10,20,10,51,999.73
2017,10,20,10,52,999.73
2017,10,20,10,53,999.73
2017,10,20,10,54,999.73
2017,10,20,10,55,999.73
2017,10,20,10,56,999.73
2017,10,20,10,57,999.73
2017,10,20,10,58,999.73
2017,10,20,10,59,999.73
2017,10,20,11,00,999.87
2017,10,20,11,01,999.87
2017,10,20,11,02,999.87
2017,10,20,11,03,999.87
2017,10,20,11,04,999.87
2017,10,20,11,05,999.87
2017,10,20,11,06,999.87
2017,10,20,11,07,999.87
2017,10,20,11,08,999.87
2017,10,20,11,09,999.87
2017,10,20,11,10,999.87
2017,10,20,11,11,999.87
2017,10,20,11,12,999.87
2017,10,20,11,13,999.87
2017,10,20,11,14,999.87
2017,10,20,11,15,999.90
2017,10,20,11,16,999.90
2017,10,20,11,17,999.90
2017,10,20,11,18,999.90
2017,10,20,11,19,999.90
2017,10,20,11,20,999.90
2017,10,20,11,21,999.90
2017,10,20,11,22,999.90
2017,10,20,11,23,999.90
2017,10,20,11,24,999.90
2017,10,20,11,25,999.90
2017,10,20,11,26,999.90
2017,10,20,11,27,999.90
2017,10,20,11,28,999.90
2017,10,20,11,29,999.90
2017,10,20,11,30,1000.03
2017,10,20,11,31,1000.03
2017,10,20,11,32,1000.03
2017,10,20,11,33,1000.03
2017,10,20,11,34,1000.03
2017,10,20,11,35,1000.03
2017,10,20,11,36,1000.03
2017,10,20,11,37,1000.03
2017,10,20,11,38,1000.03
2017,10,20,11,39,1000.03
2017,10,20,11,40,1000.03
2017,10,20,11,41,1000.03
2017,10,20,11,42,1000.03
2017,10,20,11,43,1000.03
2017,10,20,11,44,1000.03
2017,10,20,11,45,1000.37
2017,10,20,11,46,1000.37
2017,10,20,11,47,1000.37
2017,10,20,11,48,1000.37
2017,10,20,11,49,1000.37
2017,10,20,11,50,1000.37
2017,10,20,11,51,1000.37
2017,10,20,11,52,1000.37
2017,10,20,11,53,1000.37
2017,10,20,11,54,1000.37
2017,10,20,11,55,1000.37
2017,10,20,11,56,1000.37
2017,10,20,11,57,1000.37
2017,10,20,11,58,1000.37
2017,10,20,11,59,1000.37
2017,10,20,12,00,1000.41
2017,10,20,12,01,1000.41
2017,10,20,12,02,1000.41
2017,10,20,12,03,1000.41
2017,10,20,12,04,1000.41
2017,10,20,12,05,1000.41
2017,10,20,12,06,1000.41
2017,10,20,12,07,1000.41
2017,10,20,12,08,1000.41
2017,10,20,12,09,1000.41
2017,10,20,12,10,1000.41
2017,10,20,12,11,1000.41
2017,10,20,12,12,1000.41
2017,10,20,12,13,1000.41
2017,10,20,12,14,1000.41
2017,10,20,12,15,1000.63
2017,10,20,12,16,1000.64
2017,10,20,12,17,1000.64
2017,10,20,12,18,1000.64
2017,10,20,12,19,1000.64
2017,10,20,12,20,1000.64
2017,10,20,12,21,1000.64
2017,10,20,12,22,1000.64
2017,10,20,12,23,1000.64
2017,10,20,12,24,1000.64
2017,10,20,12,25,1000.64
2017,10,20,12,26,1000.64
2017,10,20,12,27,1000.64
2017,10,20,12,28,1000.64
2017,10,20,12,29,1000.64
2017,10,20,12,30,1000.92
2017,10,20,12,31,1000.92
2017,10,20,12,32,1000.92
2017,10,20,12,33,1000.92
2017,10,20,12,34,1000.92
2017,10,20,12,35,1000.92
2017,10,20,12,36,1000.92
2017,10,20,12,37,1000.92
2017,10,20,12,38,1000.92
2017,10,20,12,39,1000.92
2017,10,20,12,40,1000.92
2017,10,20,12,41,1000.92
2017,10,20,12,42,1000.92
2017,10,20,12,43,1000.92
2017,10,20,12,44,1000.92
2017,10,20,12,45,1000.98
2017,10,20,12,46,1000.98
2017,10,20,12,47,1000.98
2017,10,20,12,48,1000.98
2017,10,20,12,49,1000.98
2017,10,20,12,50,1000.98
2017,10,20,12,51,1000.98
2017,10,20,12,52,1000.98
2017,10,20,12,53,1000.98
2017,10,20,12,54,1000.98
2017,10,20,12,55,1000.98
2017,10,20,12,56,1000.98
2017,10,20,12,57,1000.98
2017,10,20,12,58,1000.98
2017,10,20,12,59,1000.98
2017,10,20,13,00,1001.05
2017,10,20,13,01,1001.05
2017,10,20,13,02,1001.05
2017,10,20,13,03,1001.05
2017,10,20,13,04,1001.05
2017,10,20,13,05,1001.05
2017,10,20,13,06,1001.05
2017,10,20,13,07,1001.05
2017,10,20,13,08,1001.05
2017,10,20,13,09,1001.05
2017,10,20,13,10,1001.05
2017,10,20,13,11,1001.05
2017,10,20,13,12,1001.05
2017,10,20,13,13,1001.05
2017,10,20,13,14,1001.05
2017,10,20,13,15,1001.34
2017,10,20,13,16,1001.36
2017,10,20,13,17,1001.36
2017,10,20,13,18,1001.36
2017,10,20,13,19,1001.36
2017,10,20,13,20,1001.36
2017,10,20,13,21,1001.36
2017,10,20,13,22,1001.36
2017,10,20,13,23,1001.36
2017,10,20,13,24,1001.36
2017,10,20,13,25,1001.36
2017,10,20,13,26,1001.36
2017,10,20,13,27,1001.36
2017,10,20,13,28,1001.36
2017,10,20,13,29,1001.36
2017,10,20,13,30,1001.46
2017,10,20,13,31,1001.46
2017,10,20,13,32,1001.46
2017,10,20,13,33,1001.46
2017,10,20,13,34,1001.46
2017,10,20,13,35,1001.46
2017,10,20,13,36,1001.46
2017,10,20,13,37,1001.46
2017,10,20,13,38,1001.46
2017,10,20,13,39,1001.46
2017,10,20,13,40,1001.46
2017,10,20,13,41,1001.46
2017,10,20,13,42,1001.46
2017,10,20,13,43,1001.46
2017,10,20,13,44,1001.46
2017,10,20,13,45,1001.68
2017,10,20,13,46,1001.69
2017,10,20,13,47,1001.69
2017,10,20,13,48,1001.69
2017,10,20,13,49,1001.69
2017,10,20,13,50,1001.69
2017,10,20,13,51,1001.69
2017,10,20,13,52,1001.69
2017,10,20,13,53,1001.69
2017,10,20,13,54,1001.69
2017,10,20,13,55,1001.69
2017,10,20,13,56,1001.69
2017,10,20,13,57,1001.69
2017,10,20,13,58,1001.69
2017,10,20,13,59,1001.69
2017,10,20,14,00,1001.92
2017,10,20,14,01,1001.93
2017,10,20,14,02,1001.93
2017,10,20,14,03,1001.93
2017,10,20,14,04,1001.93
2017,10,20,14,05,1001.93
2017,10,20,14,06,1001.93
2017,10,20,14,07,1001.93
2017,10,20,14,08,1001.93
2017,10,20,14,09,1001.93
2017,10,20,14,10,1001.93
2017,10,20,14,11,1001.93
2017,10,20,14,12,1001.93
2017,10,20,14,13,1001.93
2017,10,20,14,14,1001.93
2017,10,20,14,15,1002.07
2017,10,20,14,16,1002.07
2017,10,20,14,17,1002.07
2017,10,20,14,18,1002.07
2017,10,20,14,19,1002.07
2017,10,20,14,20,1002.07
2017,10,20,14,21,1002.07
2017,10,20,14,22,1002.07
2017,10,20,14,23,1002.07
2017,10,20,14,24,1002.07
2017,10,20,14,25,1002.07
2017,10,20,14,26,1002.07
2017,10,20,14,27,1002.07
2017,10,20,14,28,1002.07
2017,10,20,14,29,1002.07
2017,10,20,14,30,1002.39
2017,10,20,14,31,1002.41
2017,10,20,14,32,1002.41
2017,10,20,14,33,1002.41
2017,10,20,14,34,1002.41
2017,10,20,14,35,1002.41
2017,10,20,14,36,1002.41
2017,10,20,14,37,1002.41
2017,10,20,14,38,1002.41
2017,10,20,14,39,1002.41
2017,10,20,14,40,1002.41
2017,10,20,14,41,1002.41
2017,10,20,14,42,1002.41
2017,10,20,14,43,1002.41
2017,10,20,14,44,1002.41
2017,10,20,14,45,1002.44
2017,10,20,14,46,1002.44
2017,10,20,14,47,1002.44
2017,10,20,14,48,1002.44
2017,10,20,14,49,1002.44
2017,10,20,14,50,1002.44
2017,10,20,14,51,1002.44
2017,10,20,14,52,1002.44
2017,10,20,14,53,1002.44
2017,10,20,14,54,1002.44
2017,10,20,14,55,1002.44
2017,10,20,14,56,1002.44
2017,10,20,14,57,1002.44
2017,10,20,14,58,1002.44
2017,10,20,14,59,1002.44
2017,10,20,15,00,1002.70
2017,10,20,15,01,1002.71
2017,10,20,15,02,1002.71
2017,10,20,15,03,1002.71
2017,10,20,15,04,1002.71
2017,10,20,15,05,1002.71
2017,10,20,15,06,1002.71
2017,10,20,15,07,1002.71
2017,10,20,15,08,1002.71
2017,10,20,15,09,1002.71
2017,10,20,15,10,1002.71
2017,10,20,15,11,1002.71
2017,10,20,15,12,1002.71
2017,10,20,15,13,1002.71
2017,10,20,15,14,1002.71
2017,10,20,15,15,1002.81
2017,10,20,15,16,1002.81
2017,10,20,15,17,1002.81
2017,10,20,15,18,1002.81
2017,10,20,15,19,1002.81
2017,10,20,15,20,1002.81
2017,10,20,15,21,1002.81
2017,10,20,15,22,1002.81
2017,10,20,15,23,1002.81
2017,10,20,15,24,1002.81
2017,10,20,15,25,1002.81
2017,10,20,15,26,1002.81
2017,10,20,15,27,1002.81
2017,10,20,15,28,1002.81
2017,10,20,15,29,1002.81
2017,10,20,15,30,1003.04
2017,10,20,15,31,1003.05
2017,10,20,15,32,1003.05
2017,10,20,15,33,1003.05
2017,10,20,15,34,1003.05
2017,10,20,15,35,1003.05
2017,10,20,15,36,1003.05
2017,10,20,15,37,1003.05
2017,10,20,15,38,1003.05
2017,10,20,15,39,1003.05
2017,10,20,15,40,1003.05
2017,10,20,15,41,1003.05
2017,10,20,15,42,1003.05
2017,10,20,15,43,1003.05
2017,10,20,15,44,1003.05
2017,10,20,15,45,1003.47
2017,10,20,15,46,1003.49
2017,10,20,15,47,1003.49
2017,10,20,15,48,1003.49
2017,10,20,15,49,1003.49
2017,10,20,15,50,1003.49
2017,10,20,15,51,1003.49
2017,10,20,15,52,1003.49
2017,10,20,15,53,1003.49
2017,10,20,15,54,1003.49
2017,10,20,15,55,1003.49
2017,10,20,15,56,1003.49
2017,10,20,15,57,1003.49
2017,10,20,15,58,1003.49
2017,10,20,15,59,1003.49
2017,10,20,16,00,1003.56
2017,10,20,16,01,1003.56
2017,10,20,16,02,1003.56
2017,10,20,16,03,1003.56
2017,10,20,16,04,1003.56
2017,10,20,16,05,1003.56
2017,10,20,16,06,1003.56
2017,10,20,16,07,1003.56
2017,10,20,16,08,1003.56
2017,10,20,16,09,1003.56
2017,10,20,16,10,1003.56
2017,10,20,16,11,1003.56
2017,10,20,16,12,1003.56
2017,10,20,16,13,1003.56
2017,10,20,16,14,1003.56
2017,10,20,16,15,1003.93
2017,10,20,16,16,1003.93
2017,10,20,16,17,1003.93
2017,10,20,16,18,1003.93
2017,10,20,16,19,1003.93
2017,10,20,16,20,1003.93
2017,10,20,16,21,1003.93
2017,10,20,16,22,1003.93
2017,10,20,16,23,1003.93